CW0728 Weather Reports


time (UTC)temp
C
wind
direction
speed
KPH
gust
KPH
rain 1hr
cm
rain 24hr
cm
rain mn
cm
humidity
%
barometer
mb
20260506084522 10 200 0.0 8.0 0.00 0.00 0.00 86 1007.5
20260506083103 10 144 0.0 4.8 0.00 0.00 0.00 85 1007.4
20260506081541 10 171 0.0 6.4 0.00 0.00 0.00 85 1007.3
20260506073036 10 146 0.0 0.0 0.00 0.00 0.00 85 1007.3
20260506071524 10 146 0.0 8.0 0.00 0.00 0.00 85 1007.0
20260506061557 10 181 0.0 8.0 0.00 0.00 0.00 82 1006.8
20260506044510 11 165 0.0 8.0 0.00 0.00 0.00 81 1007.0
20260506043050 11 165 0.0 8.0 0.00 0.00 0.00 81 1006.9
20260506041531 11 221 1.6 8.0 0.00 0.00 0.00 81 1006.8
20260506040020 11 206 0.0 8.0 0.00 0.00 0.00 81 1006.8
20260506034511 11 192 0.0 6.4 0.00 0.00 0.00 81 1006.8
20260506033055 11 194 0.0 3.2 0.00 0.00 0.00 82 1006.8
20260506031543 11 141 0.0 6.4 0.00 0.00 0.00 81 1006.7
20260506030019 11 84 0.0 6.4 0.00 0.00 0.00 80 1006.8
20260506024613 11 180 0.0 4.8 0.00 0.00 0.00 79 1006.8
20260506023051 12 158 0.0 4.8 0.00 0.00 0.00 78 1006.8
20260506021519 12 165 0.0 0.0 0.00 0.00 0.00 77 1006.8
20260506020123 13 229 0.0 3.2 0.00 0.00 0.00 75 1006.9
20260506014534 13 171 0.0 0.0 0.00 0.00 0.00 73 1007.0
20260506013008 13 145 1.6 6.4 0.00 0.00 0.00 73 1006.9
20260506011549 14 152 0.0 4.8 0.00 0.00 0.00 72 1006.8
20260506010029 15 169 0.0 8.0 0.00 0.00 0.00 69 1006.6
20260506004602 16 163 0.0 1.6 0.00 0.00 0.00 66 1006.5
20260506003040 16 158 0.0 3.2 0.00 0.00 0.00 65 1006.4
20260506001529 16 219 0.0 6.4 0.00 0.00 0.00 63 1006.1
20260506000020 17 175 0.0 6.4 0.00 0.00 0.00 64 1005.4
20260505234607 17 171 1.6 8.0 0.00 0.00 0.00 62 1005.0
20260505233030 17 157 0.0 4.8 0.00 0.00 0.00 61 1004.9
20260505231508 17 250 0.0 14.5 0.00 0.00 0.00 63 1005.4
20260505230050 16 277 3.2 17.7 0.00 0.00 0.00 67 1005.8
20260505224524 15 244 4.8 22.5 0.00 0.00 0.00 66 1003.6
20260505223011 15 219 6.4 24.1 0.00 0.00 0.00 67 1003.4
20260505221557 16 232 8.0 22.5 0.00 0.00 0.00 66 1003.2
20260505220026 16 225 9.7 27.4 0.00 0.00 0.00 65 1003.0
20260505214502 16 221 4.8 19.3 0.00 0.00 0.00 66 1003.0
20260505213042 15 167 3.2 24.1 0.00 0.00 0.00 69 1003.1
20260505211543 14 187 8.0 22.5 0.00 0.00 0.00 70 1002.9
20260505210005 15 257 6.4 22.5 0.00 0.00 0.00 68 1002.9
20260505204557 16 178 3.2 24.1 0.00 0.00 0.00 66 1002.8
20260505203021 16 215 6.4 17.7 0.00 0.00 0.00 66 1003.0
20260505201602 17 164 1.6 17.7 0.00 0.00 0.00 66 1003.0
20260505200038 16 241 4.8 24.1 0.00 0.00 0.00 66 1003.2
20260505194512 16 163 6.4 24.1 0.00 0.00 0.00 67 1003.3
20260505193053 16 109 3.2 24.1 0.00 0.00 0.00 68 1003.6
20260505191540 16 180 3.2 17.7 0.00 0.00 0.00 68 1003.9
20260505190024 16 226 3.2 16.1 0.00 0.00 0.00 68 1004.3
20260505184559 16 197 8.0 25.7 0.00 0.00 0.00 67 1004.3
20260505183038 17 226 4.8 20.9 0.00 0.00 0.00 65 1004.4
20260505181513 16 239 3.2 17.7 0.00 0.00 0.00 68 1004.3
20260505174539 15 244 6.4 20.9 0.00 0.00 0.00 68 1004.7
20260505173025 15 210 4.8 17.7 0.00 0.00 0.00 69 1004.9
20260505171505 16 251 1.6 16.1 0.00 0.00 0.00 68 1005.0
20260505170043 16 190 3.2 12.9 0.00 0.00 0.00 69 1005.5
20260505164519 16 163 3.2 14.5 0.00 0.00 0.00 68 1005.7
20260505163058 16 90 1.6 11.3 0.00 0.00 0.00 69 1005.7
20260505161534 15 240 3.2 16.1 0.00 0.00 0.00 69 1006.1
20260505153049 16 134 1.6 12.9 0.00 0.00 0.00 70 1006.7
20260505151536 15 186 3.2 11.3 0.00 0.00 0.00 73 1006.8
20260505124551 11 201 4.8 14.5 0.00 0.00 0.00 79 1006.8
20260505123032 11 188 0.0 11.3 0.00 0.00 0.00 81 1006.7
20260505121512 10 202 3.2 11.3 0.00 0.00 0.00 82 1006.9
20260505120109 10 139 1.6 12.9 0.00 0.00 0.00 84 1007.0
20260505114531 10 175 1.6 9.7 0.00 0.00 0.00 84 1007.2
20260505113019 9 155 3.2 8.0 0.00 0.00 0.00 85 1007.4
20260505111508 9 131 1.6 9.7 0.00 0.00 0.00 84 1007.3
20260505110104 9 157 0.0 8.0 0.00 0.00 0.00 84 1007.0
20260505101550 8 174 0.0 3.2 0.00 0.00 0.00 85 1007.2
20260505100032 8 135 0.0 6.4 0.00 0.00 0.00 85 1007.0
20260505094515 8 158 0.0 3.2 0.00 0.00 0.00 85 1007.2
20260505093053 7 141 0.0 4.8 0.00 0.00 0.00 85 1007.0
20260505091551 7 180 0.0 4.8 0.00 0.00 0.00 85 1007.1
20260505090022 7 150 0.0 0.0 0.00 0.00 0.00 84 1007.2